Location: Maccacari
(45.1333°N, 11.1333°E)
Time: 01:17:34
(UTC+00:00)

A-11 Canister half - Pass Details

Date: 28 January 2021
Orbit: 1525 x 1684 km, 47.3° (Epoch: 05 March)

Event Time Altitude Azimuth Distance (km) Brightness Sun altitude
Rises 19:14:51 0° 293° (WNW) 4,749 12.6 -31.3°
Reaches altitude 10° 19:18:05 10° 287° (WNW) 3,783 11.9 -31.8°
Maximum altitude 19:26:54 43° 221° (SW) 2,151 9.8 -33.4°
Enters shadow 19:31:21 28° 173° (S) 2,690 10.1 -34.2°
